[[{"header":{"parameterUnit":"m.s-1","parameterCategory":2,"la1":30.2992,"la2":30.254,"lo1":-89.0895,"lo2":-89.0443,"dy":0.0025,"dx":0.0025,"nx":19,"ny":19,"refTime":"2026-03-09T03:00:00:Z","depth":"0","parameterNumber":2,"parameterNumberName":"U-component_of_CURRENTS"},"data":[0,0,0,-0.313,-0.3131,-0.3153,-0.3152,-0.3056,-0.3055,0,0,0,0,0,0,0,0,0,0,0,-0.3119,-0.312,-0.313,-0.3131,-0.3153,-0.3152,-0.3057,-0.3055,0,0,0,0,0,0,0,0,0,0,0,-0.3119,-0.312,-0.3121,-0.3132,-0.3153,-0.3152,-0.3057,-0.3066,0,0,0,0,0,0,0,0,0,0,-0.3058,-0.3041,-0.312,-0.3121,-0.3132,-0.3153,-0.3152,-0.3067,-0.3065,-0.3018,0,-0.304,0,-0.3054,-0.3048,-0.3048,0,0,0,-0.3109,-0.3043,-0.3087,-0.3121,-0.3132,-0.3153,-0.3137,-0.3067,-0.3064,-0.3015,-0.3039,-0.3037,-0.3053,-0.3048,-0.3047,-0.3068,-0.3069,0,0,-0.3108,-0.3078,-0.309,-0.3086,-0.3159,-0.3136,-0.3138,-0.3067,-0.3047,-0.3039,-0.3035,-0.3051,-0.3047,-0.3046,-0.3067,-0.3068,0,0,0,-0.3119,-0.3077,-0.3123,-0.3089,-0.3108,-0.3137,-0.3139,-0.3049,-0.3077,-0.3034,-0.305,-0.3046,-0.3045,-0.3066,-0.3067,-0.3097,0,0,0,-0.3118,-0.3086,-0.3123,-0.3099,-0.3111,-0.3088,-0.3123,-0.3082,-0.3075,-0.305,-0.3046,-0.3044,-0.3065,-0.3067,-0.3094,-0.2991,0,0,0,-0.3115,-0.3084,-0.3104,-0.3099,-0.3124,-0.3091,-0.3112,-0.3081,-0.3084,-0.3048,-0.3044,-0.3064,-0.3066,-0.3091,-0.299,-0.2845,0,0,0,-0.306,-0.3107,-0.3102,-0.3168,-0.3124,-0.3222,-0.3112,-0.3127,-0.3108,-0.3046,-0.3065,-0.3067,-0.309,-0.299,-0.2847,-0.2689,-0.2666,0,0,-0.31,-0.3109,-0.3162,-0.3161,-0.3267,-0.3216,-0.3262,-0.3165,-0.3126,-0.3072,-0.3073,-0.3095,-0.299,-0.2845,-0.2832,-0.2803,0,0,0,-0.3166,-0.32,-0.3237,-0.329,-0.3348,-0.3294,-0.3273,-0.3238,-0.3178,-0.3131,-0.3137,-0.3068,-0.2975,-0.2888,-0.2868,-0.2782,-0.3079,-0.3078,-0.3078,-0.3088,-0.3189,-0.3263,-0.3364,-0.3388,-0.3359,-0.3294,-0.3232,-0.3257,-0.3245,-0.313,-0.3076,-0.2997,-0.2976,-0.2896,-0.3233,-0.3233,-0.3233,-0.3233,-0.3144,-0.3161,-0.3258,-0.3371,-0.3338,-0.3348,-0.3264,-0.3236,-0.312,-0.3197,-0.3108,-0.2971,-0.2953,-0.2877,-0.3236,-0.3235,-0.3235,-0.3235,-0.3235,-0.3083,-0.3083,-0.321,-0.3286,-0.3249,-0.3237,-0.3059,-0.305,-0.3052,-0.2982,-0.2813,-0.2811,-0.2692,-0.2951,-0.295,-0.2949,-0.2948,-0.2947,-0.2947,-0.2885,-0.3014,-0.3046,-0.3148,-0.3103,-0.3001,-0.2909,-0.2824,-0.2732,-0.2733,-0.2732,-0.2665,-0.2985,-0.2937,-0.2931,-0.2934,-0.2936,-0.2938,-0.2939,-0.2676,-0.2766,-0.2806,-0.2809,-0.2739,-0.2544,-0.2565,-0.2417,-0.2347,-0.2275,-0.2314,-0.2575,-0.2493,-0.251,-0.2451,-0.2317,-0.2317,-0.2317,-0.2317,-0.244,-0.2525,-0.2511,-0.2474,-0.2347,-0.2293,-0.1998,-0.1965,-0.1973,-0.1919,-0.2016,-0.2116,-0.2144,-0.2049,-0.2077,-0.2012,-0.177,-0.1769,-0.1769,-0.2195,-0.228,-0.2181,-0.2302,-0.2172,-0.1995,-0.1706,-0.1591,-0.1628,-0.1746,-0.1924,-0.1947,-0.2107,-0.2159,-0.2031,-0.2077,-0.1979,0,0]},{"header":{"parameterUnit":"m.s-1","parameterCategory":2,"la1":30.2992,"la2":30.254,"lo1":-89.0895,"lo2":-89.0443,"dy":0.0025,"dx":0.0025,"nx":19,"ny":19,"refTime":"2026-03-09T03:00:00:Z","depth":"0","parameterNumber":3,"parameterNumberName":"V-component_of_CURRENTS"},"data":[0,0,0,0.0766,0.0767,0.0875,0.0875,0.0993,0.0993,0,0,0,0,0,0,0,0,0,0,0,0.0719,0.0719,0.0766,0.0767,0.0875,0.0875,0.0993,0.0993,0,0,0,0,0,0,0,0,0,0,0,0.0719,0.0719,0.0719,0.0767,0.0874,0.0875,0.0993,0.0923,0,0,0,0,0,0,0,0,0,0,0.0824,0.0773,0.0719,0.0719,0.0768,0.0874,0.0876,0.092,0.0927,0.0929,0,0.092,0,0.095,0.0998,0.0998,0,0,0,0.0795,0.0767,0.0792,0.0719,0.0768,0.0874,0.0834,0.0925,0.0933,0.0939,0.0922,0.0927,0.0952,0.0999,0.0999,0.0935,0.0934,0,0,0.0789,0.0751,0.0786,0.0796,0.0762,0.083,0.0837,0.093,0.0925,0.0923,0.093,0.0954,0.0999,0.1,0.0937,0.0935,0,0,0,0.0753,0.0746,0.0771,0.0791,0.0806,0.0833,0.0841,0.0921,0.0927,0.0932,0.0955,0.1,0.1,0.0938,0.0936,0.0752,0,0,0,0.0751,0.0724,0.0767,0.0748,0.0804,0.0868,0.0829,0.0921,0.0933,0.0955,0.1,0.1001,0.0939,0.0937,0.076,0.0662,0,0,0,0.072,0.0721,0.0722,0.0745,0.078,0.0867,0.088,0.0925,0.0945,0.0999,0.1001,0.094,0.0937,0.0767,0.0675,0.063,0,0,0,0.0696,0.0622,0.072,0.0634,0.0778,0.0755,0.088,0.0889,0.0919,0.1,0.0939,0.0936,0.0769,0.0683,0.0637,0.0783,0.0762,0,0,0.0576,0.0607,0.055,0.0639,0.0558,0.0745,0.0673,0.0778,0.0877,0.0916,0.0915,0.0757,0.0676,0.0632,0.0614,0.0598,0,0,0,0.0493,0.0443,0.0437,0.0417,0.0466,0.0507,0.0632,0.0684,0.0732,0.0878,0.0749,0.0703,0.0682,0.0785,0.0771,0.0985,0.0923,0.0923,0.0923,0.0286,0.0298,0.0196,0.0217,0.0228,0.0337,0.0367,0.0463,0.0586,0.0573,0.0548,0.0376,0.0481,0.0473,0.0689,0.0552,0.0551,0.0551,0.055,0.0056,-0.001,0.0016,-0.0072,0.0007,-0.0003,0.0116,0.0208,0.0244,0.0367,0.0357,0.0577,0.0448,0.0684,0.0538,0.0541,0.0542,0.0543,0.0544,-0.0098,-0.0121,-0.0163,-0.0246,-0.027,-0.0174,-0.0187,-0.0079,0.0059,0.0033,0.0237,0.0244,0.0463,0.0059,0.0058,0.0058,0.0057,0.0057,0.0056,-0.0205,-0.025,-0.0347,-0.0408,-0.0432,-0.0438,-0.0348,-0.0286,-0.0108,0.0035,0.0038,0.043,0.0228,0.026,0.0046,0.0048,0.0049,0.005,0.0051,-0.0348,-0.0346,-0.0495,-0.0552,-0.0632,-0.059,-0.0521,-0.0284,-0.0227,-0.0097,0.0345,0.0074,0.0161,0.0177,0.0209,-0.0006,-0.0006,-0.0006,-0.0006,-0.0399,-0.043,-0.0589,-0.07,-0.0787,-0.0673,-0.0404,-0.0096,0.0242,0.0423,0.0437,0.0606,0.0599,0.0721,0.0724,0.0773,0.0705,0.0706,0.0707,-0.0445,-0.0496,-0.0605,-0.0741,-0.0842,-0.0696,-0.0226,0.0395,0.0711,0.0752,0.069,0.066,0.0926,0.0898,0.1112,0.11,0.1188,0,0]}],[{"header":{"parameterUnit":"m.s-1","parameterCategory":2,"la1":30.2992,"la2":30.254,"lo1":-89.0895,"lo2":-89.0443,"dy":0.0025,"dx":0.0025,"nx":19,"ny":19,"refTime":"2026-03-09T03:00:00:Z","depth":"2","parameterNumber":2,"parameterNumberName":"U-component_of_CURRENTS"},"data":[0,0,0,-0.2314,-0.2317,-0.2482,-0.2483,-0.2579,-0.2579,0,0,0,0,0,0,0,0,0,0,0,-0.2261,-0.2261,-0.2314,-0.2317,-0.2481,-0.2483,-0.2579,-0.2579,0,0,0,0,0,0,0,0,0,0,0,-0.2261,-0.2261,-0.2262,-0.2318,-0.2481,-0.2483,-0.2579,-0.2489,0,0,0,0,0,0,0,0,0,0,-0.2346,-0.2308,-0.2261,-0.2262,-0.2318,-0.2481,-0.2483,-0.2487,-0.2495,-0.2463,0,-0.2478,0,-0.2514,-0.258,-0.258,0,0,0,-0.2344,-0.2302,-0.2335,-0.2262,-0.2319,-0.2481,-0.2415,-0.2492,-0.2501,-0.2473,-0.248,-0.2485,-0.2516,-0.258,-0.258,-0.2693,-0.2694,0,0,-0.2335,-0.2303,-0.2329,-0.234,-0.2346,-0.2409,-0.242,-0.2499,-0.2505,-0.2481,-0.2488,-0.2517,-0.258,-0.2581,-0.2692,-0.2693,0,0,0,-0.2291,-0.2297,-0.2332,-0.2335,-0.2365,-0.2414,-0.2425,-0.2502,-0.2511,-0.2489,-0.2518,-0.258,-0.2581,-0.269,-0.2692,-0.2607,0,0,0,-0.2287,-0.2269,-0.2327,-0.2312,-0.2364,-0.2452,-0.2426,-0.2506,-0.2516,-0.2518,-0.2581,-0.2581,-0.2689,-0.2691,-0.2607,-0.255,0,0,0,-0.2256,-0.2266,-0.2278,-0.2309,-0.2368,-0.2452,-0.2468,-0.251,-0.2531,-0.258,-0.2581,-0.2688,-0.2691,-0.2607,-0.2552,-0.2498,0,0,0,-0.2229,-0.2306,-0.2278,-0.2338,-0.2365,-0.2464,-0.2469,-0.2547,-0.2592,-0.2581,-0.2689,-0.2692,-0.2607,-0.2552,-0.25,-0.234,-0.2319,0,0,-0.2326,-0.2316,-0.2345,-0.2324,-0.2416,-0.2444,-0.2561,-0.2615,-0.2622,-0.2656,-0.266,-0.2607,-0.2552,-0.2499,-0.2489,-0.2463,0,0,0,-0.2374,-0.2359,-0.2389,-0.241,-0.2486,-0.2529,-0.262,-0.2611,-0.2638,-0.2656,-0.2684,-0.2653,-0.262,-0.2531,-0.2513,-0.2704,-0.2704,-0.2704,-0.2703,-0.2313,-0.2359,-0.2406,-0.2457,-0.2494,-0.261,-0.262,-0.2632,-0.2677,-0.2667,-0.2641,-0.2621,-0.2531,-0.2514,-0.272,-0.272,-0.272,-0.2719,-0.2719,-0.2288,-0.2296,-0.2323,-0.2402,-0.2471,-0.2539,-0.2562,-0.2595,-0.2585,-0.2622,-0.2595,-0.2519,-0.2487,-0.2714,-0.2715,-0.2716,-0.2716,-0.2717,-0.2717,-0.2195,-0.2238,-0.2269,-0.2299,-0.2348,-0.245,-0.2413,-0.2476,-0.2477,-0.2463,-0.2397,-0.2397,-0.2502,-0.2474,-0.2474,-0.2473,-0.2473,-0.2473,-0.2472,-0.21,-0.2151,-0.2121,-0.2165,-0.219,-0.2226,-0.2309,-0.2305,-0.229,-0.2295,-0.2294,-0.2538,-0.2546,-0.2492,-0.2465,-0.2467,-0.2467,-0.2468,-0.2469,-0.2044,-0.199,-0.1942,-0.1952,-0.1978,-0.1937,-0.2077,-0.2055,-0.2066,-0.2008,-0.2184,-0.2193,-0.2193,-0.2209,-0.215,-0.2036,-0.2036,-0.2036,-0.2036,-0.1943,-0.1921,-0.1753,-0.1696,-0.1708,-0.1787,-0.1697,-0.1705,-0.1772,-0.1764,-0.1777,-0.1799,-0.1822,-0.1805,-0.1831,-0.1766,-0.1552,-0.1551,-0.155,-0.1851,-0.1805,-0.1657,-0.1564,-0.1577,-0.161,-0.1465,-0.1334,-0.1349,-0.1535,-0.1735,-0.1995,-0.2063,-0.2085,-0.2096,-0.2122,-0.2032,0,0]},{"header":{"parameterUnit":"m.s-1","parameterCategory":2,"la1":30.2992,"la2":30.254,"lo1":-89.0895,"lo2":-89.0443,"dy":0.0025,"dx":0.0025,"nx":19,"ny":19,"refTime":"2026-03-09T03:00:00:Z","depth":"2","parameterNumber":3,"parameterNumberName":"V-component_of_CURRENTS"},"data":[0,0,0,-0.0825,-0.0823,-0.0686,-0.0685,-0.0426,-0.0424,0,0,0,0,0,0,0,0,0,0,0,-0.0852,-0.0852,-0.0825,-0.0823,-0.0686,-0.0684,-0.0426,-0.0424,0,0,0,0,0,0,0,0,0,0,0,-0.0853,-0.0852,-0.0851,-0.0823,-0.0686,-0.0684,-0.0427,-0.0541,0,0,0,0,0,0,0,0,0,0,-0.0681,-0.0751,-0.0852,-0.0851,-0.0822,-0.0686,-0.0684,-0.0547,-0.0534,-0.0478,0,-0.0469,0,-0.0465,-0.0408,-0.0407,0,0,0,-0.0781,-0.0762,-0.0718,-0.0851,-0.0822,-0.0687,-0.0736,-0.054,-0.0525,-0.046,-0.0466,-0.0457,-0.0461,-0.0407,-0.0406,-0.0135,-0.0134,0,0,-0.0789,-0.0825,-0.0729,-0.071,-0.0801,-0.0741,-0.0732,-0.0531,-0.0525,-0.0465,-0.0452,-0.0457,-0.0405,-0.0404,-0.0136,-0.0135,0,0,0,-0.0839,-0.0831,-0.0793,-0.0719,-0.0715,-0.0738,-0.0728,-0.0533,-0.0519,-0.0449,-0.0454,-0.0404,-0.0401,-0.0137,-0.0136,-0.0234,0,0,0,-0.0841,-0.0863,-0.0797,-0.0816,-0.072,-0.064,-0.0734,-0.0531,-0.051,-0.0455,-0.0404,-0.0399,-0.0139,-0.0136,-0.0234,-0.0292,0,0,0,-0.0856,-0.0865,-0.0853,-0.0819,-0.078,-0.0644,-0.0616,-0.0526,-0.0514,-0.0407,-0.0398,-0.014,-0.0137,-0.0234,-0.0291,-0.0259,0,0,0,-0.0891,-0.0883,-0.0854,-0.0845,-0.0782,-0.0693,-0.0618,-0.0526,-0.0439,-0.0403,-0.0139,-0.0136,-0.0235,-0.029,-0.0259,-0.0219,-0.0216,0,0,-0.0899,-0.0885,-0.0879,-0.085,-0.0802,-0.0708,-0.0592,-0.0448,-0.0366,-0.0195,-0.0189,-0.0234,-0.0291,-0.0259,-0.0047,-0.0051,0,0,0,-0.0894,-0.0892,-0.0873,-0.084,-0.0763,-0.0658,-0.0509,-0.0438,-0.0283,-0.0309,-0.0145,-0.0176,-0.0155,-0.0126,-0.0127,-0.0122,-0.0122,-0.0122,-0.0123,-0.0938,-0.0902,-0.0883,-0.0815,-0.0757,-0.0586,-0.0492,-0.0343,-0.0264,-0.0203,-0.0191,-0.0146,-0.0112,-0.0114,-0.0104,-0.0105,-0.0105,-0.0105,-0.0105,-0.0973,-0.0971,-0.0904,-0.0878,-0.0754,-0.0643,-0.0455,-0.0372,-0.0221,-0.0187,-0.016,-0.0149,-0.0121,-0.0111,-0.011,-0.0109,-0.0109,-0.0108,-0.0108,-0.1046,-0.1031,-0.1005,-0.0946,-0.0841,-0.0683,-0.0575,-0.0433,-0.0316,-0.0281,-0.0175,-0.0173,-0.0245,-0.0244,-0.0244,-0.0244,-0.0244,-0.0244,-0.0244,-0.1128,-0.1092,-0.1087,-0.1015,-0.0959,-0.0855,-0.0647,-0.0548,-0.0367,-0.0258,-0.0256,-0.0191,-0.0187,-0.0247,-0.0246,-0.0246,-0.0245,-0.0245,-0.0245,-0.1205,-0.1192,-0.1189,-0.1154,-0.1029,-0.0951,-0.0772,-0.053,-0.0403,-0.031,-0.0213,-0.0213,-0.0171,-0.0167,-0.0222,-0.0215,-0.0215,-0.0215,-0.0215,-0.125,-0.1249,-0.1233,-0.1199,-0.112,-0.099,-0.0821,-0.0558,-0.0315,-0.0196,-0.0197,-0.0173,-0.0174,-0.013,-0.0126,-0.018,-0.0162,-0.0162,-0.0162,-0.1266,-0.1267,-0.1262,-0.1235,-0.1149,-0.103,-0.0869,-0.0563,-0.0227,-0.0163,-0.0218,-0.0205,-0.0171,-0.0173,-0.0102,-0.0098,-0.0182,0,0]}],[{"header":{"parameterUnit":"m.s-1","parameterCategory":2,"la1":30.2992,"la2":30.254,"lo1":-89.0895,"lo2":-89.0443,"dy":0.0025,"dx":0.0025,"nx":19,"ny":19,"refTime":"2026-03-09T03:00:00:Z","depth":"4","parameterNumber":2,"parameterNumberName":"U-component_of_CURRENTS"},"data":[0,0,0,-0.1191,-0.1193,-0.1308,-0.1309,-0.1427,-0.1428,0,0,0,0,0,0,0,0,0,0,0,-0.1152,-0.1153,-0.1191,-0.1194,-0.1308,-0.1309,-0.1427,-0.1428,0,0,0,0,0,0,0,0,0,0,0,-0.1152,-0.1153,-0.1154,-0.1194,-0.1308,-0.1309,-0.1426,-0.1346,0,0,0,0,0,0,0,0,0,0,-0.1238,-0.1198,-0.1152,-0.1154,-0.1195,-0.1308,-0.1309,-0.1342,-0.1351,-0.1368,0,-0.1394,0,-0.1416,-0.1435,-0.1436,0,0,0,-0.119,-0.119,-0.1233,-0.1154,-0.1196,-0.1308,-0.1255,-0.1347,-0.1357,-0.1379,-0.1396,-0.1401,-0.1418,-0.1436,-0.1437,-0.1523,-0.1523,0,0,-0.1183,-0.1161,-0.1226,-0.1239,-0.1237,-0.1252,-0.1259,-0.1353,-0.1361,-0.1396,-0.1404,-0.142,-0.1437,-0.1438,-0.1523,-0.1523,0,0,0,-0.1168,-0.1156,-0.1196,-0.1234,-0.1258,-0.1255,-0.1263,-0.1357,-0.1374,-0.1405,-0.1421,-0.1438,-0.1439,-0.1523,-0.1523,-0.1603,0,0,0,-0.1164,-0.1148,-0.1194,-0.118,-0.1257,-0.1311,-0.1264,-0.1367,-0.1379,-0.142,-0.1438,-0.144,-0.1523,-0.1523,-0.1601,-0.1621,0,0,0,-0.1145,-0.1146,-0.1165,-0.1179,-0.1232,-0.131,-0.1332,-0.137,-0.1388,-0.1436,-0.144,-0.1523,-0.1523,-0.1599,-0.1617,-0.1666,0,0,0,-0.1109,-0.1122,-0.1164,-0.1193,-0.1231,-0.1304,-0.1331,-0.1401,-0.1445,-0.1438,-0.1523,-0.1523,-0.1598,-0.1615,-0.1663,-0.1413,0,0,0,-0.1099,-0.112,-0.1139,-0.1179,-0.1232,-0.1287,-0.1366,-0.1444,-0.1448,-0.1489,-0.1492,-0.1602,-0.1617,-0.1665,-0.1428,0,0,0,0,-0.1118,-0.1139,-0.1155,-0.1212,-0.127,-0.1356,-0.1432,-0.1461,-0.1529,-0.1476,-0.1584,-0.159,-0.1618,-0.1463,-0.1524,-0.1524,-0.1524,-0.1524,-0.1524,-0.1079,-0.1133,-0.1172,-0.1251,-0.1306,-0.1426,-0.1493,-0.1552,-0.1558,-0.1592,-0.1643,-0.1713,-0.155,-0.1635,-0.1635,-0.1636,-0.1636,-0.1636,-0.1636,-0.1079,-0.1101,-0.1204,-0.1263,-0.1372,-0.1464,-0.1583,-0.1629,-0.1712,-0.1679,-0.1705,-0.1541,-0.1644,-0.1642,-0.1641,-0.164,-0.164,-0.1639,-0.1639,-0.1026,-0.1044,-0.1132,-0.125,-0.1395,-0.1515,-0.1639,-0.174,-0.1769,-0.1822,-0.1657,-0.1763,-0.1771,-0.1848,-0.1848,-0.1848,-0.1849,-0.1849,-0.1849,-0.0926,-0.1017,-0.1073,-0.1226,-0.1333,-0.1487,-0.1689,-0.1736,-0.1814,-0.1703,-0.1849,-0.1784,-0.1777,-0.1782,-0.1854,-0.1853,-0.1852,-0.1852,-0.1852,-0.0825,-0.0881,-0.0956,-0.1058,-0.1303,-0.1423,-0.1639,-0.1656,-0.1694,-0.1632,-0.1636,-0.1645,-0.1592,-0.159,-0.1586,-0.1603,-0.16,-0.1597,0,-0.0736,-0.0766,-0.0876,-0.1013,-0.1172,-0.1386,-0.1395,-0.1473,-0.1505,-0.1446,-0.1702,-0.1707,-0.1711,-0.1652,-0.1646,-0.164,0,0,0,-0.0673,-0.0716,-0.0756,-0.091,-0.1119,-0.124,-0.1393,-0.1342,-0.1505,-0.143,-0.1523,-0.1543,-0.1739,-0.1868,-0.1809,-0.1801,-0.1805,0,0]},{"header":{"parameterUnit":"m.s-1","parameterCategory":2,"la1":30.2992,"la2":30.254,"lo1":-89.0895,"lo2":-89.0443,"dy":0.0025,"dx":0.0025,"nx":19,"ny":19,"refTime":"2026-03-09T03:00:00:Z","depth":"4","parameterNumber":3,"parameterNumberName":"V-component_of_CURRENTS"},"data":[0,0,0,-0.0654,-0.0654,-0.0653,-0.0653,-0.0573,-0.0572,0,0,0,0,0,0,0,0,0,0,0,-0.0646,-0.0646,-0.0654,-0.0654,-0.0653,-0.0653,-0.0573,-0.0572,0,0,0,0,0,0,0,0,0,0,0,-0.0646,-0.0646,-0.0646,-0.0655,-0.0653,-0.0653,-0.0573,-0.059,0,0,0,0,0,0,0,0,0,0,-0.0599,-0.0619,-0.0646,-0.0646,-0.0655,-0.0653,-0.0653,-0.0591,-0.0589,-0.0557,0,-0.0564,0,-0.0575,-0.0567,-0.0566,0,0,0,-0.0638,-0.0622,-0.0615,-0.0646,-0.0655,-0.0653,-0.0649,-0.059,-0.0587,-0.0553,-0.0563,-0.0561,-0.0574,-0.0566,-0.0566,-0.0495,-0.0495,0,0,-0.0638,-0.0647,-0.0618,-0.0614,-0.0662,-0.0649,-0.0649,-0.0589,-0.0591,-0.0563,-0.0559,-0.0572,-0.0566,-0.0565,-0.0495,-0.0495,0,0,0,-0.0649,-0.0647,-0.0644,-0.0616,-0.0628,-0.065,-0.065,-0.0594,-0.0591,-0.0559,-0.0572,-0.0565,-0.0564,-0.0495,-0.0495,-0.0498,0,0,0,-0.0649,-0.0655,-0.0644,-0.0649,-0.063,-0.0625,-0.0655,-0.0595,-0.0589,-0.0572,-0.0565,-0.0563,-0.0495,-0.0495,-0.0498,-0.0487,0,0,0,-0.0645,-0.0655,-0.0656,-0.0649,-0.0657,-0.0626,-0.0621,-0.0594,-0.0597,-0.0566,-0.0563,-0.0495,-0.0495,-0.0498,-0.0488,-0.0424,0,0,0,-0.065,-0.0668,-0.0656,-0.0674,-0.0657,-0.0655,-0.0621,-0.062,-0.0599,-0.0565,-0.0495,-0.0495,-0.0499,-0.0488,-0.0425,-0.0465,0,0,0,-0.0677,-0.0672,-0.068,-0.067,-0.0688,-0.0654,-0.0642,-0.0606,-0.0577,-0.0507,-0.0506,-0.0498,-0.0488,-0.0424,-0.0445,0,0,0,0,-0.0691,-0.07,-0.0702,-0.0709,-0.0697,-0.0662,-0.0639,-0.06,-0.0541,-0.0566,-0.049,-0.0483,-0.0443,-0.0471,-0.0493,-0.0493,-0.0493,-0.0493,-0.0493,-0.072,-0.072,-0.0736,-0.073,-0.0716,-0.067,-0.0615,-0.0552,-0.0546,-0.0517,-0.048,-0.0427,-0.0459,-0.048,-0.0481,-0.0481,-0.0481,-0.0481,-0.0481,-0.0748,-0.0755,-0.0747,-0.0767,-0.0724,-0.0699,-0.0585,-0.0552,-0.0443,-0.0465,-0.0426,-0.0468,-0.0481,-0.0481,-0.0481,-0.0481,-0.0481,-0.0481,-0.0481,-0.0764,-0.0769,-0.0789,-0.0796,-0.0766,-0.0706,-0.0613,-0.0529,-0.0439,-0.0391,-0.0393,-0.0402,-0.0405,-0.0374,-0.0373,-0.0373,-0.0373,-0.0372,-0.0372,-0.0767,-0.0787,-0.0817,-0.0816,-0.0818,-0.0761,-0.0626,-0.0541,-0.044,-0.0381,-0.0388,-0.0389,-0.0393,-0.0397,-0.0367,-0.0368,-0.0369,-0.0369,-0.037,-0.0783,-0.0795,-0.0832,-0.0854,-0.0849,-0.0799,-0.0691,-0.0512,-0.0404,-0.0323,-0.0352,-0.0354,-0.0341,-0.0345,-0.0348,-0.0302,-0.0302,-0.0303,0,-0.0778,-0.079,-0.0844,-0.0884,-0.0872,-0.0818,-0.0677,-0.0559,-0.0419,-0.0424,-0.0413,-0.0454,-0.0453,-0.045,-0.0453,-0.0463,0,0,0,-0.0769,-0.0785,-0.0828,-0.0887,-0.0893,-0.0741,-0.0632,-0.0568,-0.0453,-0.0356,-0.0312,-0.0309,-0.0407,-0.0353,-0.0337,-0.0341,-0.0346,0,0]}]]